Other Surface Observations
Issued by NWS

Home | Current Version | Previous Version | Text Only | Print | Product List | Glossary On
Versions: 1 2 3 4 5 6 7 8 9 10 11 12 13 14 15 16 17 18 19 20 21 22 23 24 25 26 27 28 29 30 31 32 33 34 35 36 37 38 39 40 41 42 43 44 45 46 47 48 49 50
000
SXUS52 KTAE 281718
OSOTAE
OSOTAE
North Florida/South Alabama/Southwest Georgia Weather Roundup
National Weather Service Tallahassee Florida
1200 PM EST FRI NOV 28 2014

Note: "fair" indicates few or no clouds below 12,000 feet with no
significant weather and/or obstructions to visibility.

!FLZ017-115-028-034-025-281800
...North Florida...

CITY           SKY/WX    TMP DP  RH WIND       PRES   REMARKS
TALLAHASSEE    MOSUNNY   51  26  37 NW10      30.39F
APALACHICOLA   SUNNY     55  31  39 NE5       30.39F
PERRY          SUNNY     50  29  44 N6        30.38F
CROSS CITY       N/A     52  31  44 N9        30.36F
JACKSONVILLE   MOSUNNY   50  31  48 NE10      30.37F
$$

!FLZ112-006-005-002-011-281800
...Florida Panhandle...

CITY           SKY/WX    TMP DP  RH WIND       PRES   REMARKS
MARIANNA       SUNNY     49  31  49 NE7       30.40F
BONIFAY        FAIR      50  30  46 N6        30.41F
PANAMA CITY NW FAIR      51  30  44 N8        30.39F
TYNDALL AFB    SUNNY     51  34  51 N7        30.40F
TYND DRONE APT NOT AVBL
DE FUNIAK SPR  FAIR      48  28  44 NE7       30.40F
EGLIN AFB      SUNNY     52  29  41 NE9       30.40F
DESTIN         SUNNY     52  31  44 NE5       30.41F
HURLBURT       SUNNY     51  22  32 VRB3      30.40F
CRESTVIEW      SUNNY     52  29  41 VRB5      30.41F
PENSACOLA      SUNNY     51  29  42 N6        30.41F
$$

!ALZ063-066-281800
...South Alabama...

CITY           SKY/WX    TMP DP  RH WIND       PRES   REMARKS
DOTHAN         SUNNY     48  27  44 N8        30.43F WCI  44
OZARK CAIRNS   SUNNY     47  25  42 VRB3      30.40F
FT RUCKER HELI SUNNY     49  27  42 N6        30.39F
RUCKER HELI 3  FAIR      48  28  46 VRB2      30.42F
RUCKER HELI 2  FAIR      48  27  44 VRB3      30.40F
FLORALA APT    SUNNY     52  27  38 N6        30.41F
ANDALUSIA      SUNNY     53  25  33 N5        30.40F
TROY           SUNNY     49  24  37 N6        30.41F
EUFALA         FAIR      47  26  44 VRB5      30.40F WCI  45
MOBILE         SUNNY     50  28  42 VRB5      30.43F
$$

!GAZ120>161-281800
...Southwest and South Central Georgia...

CITY           SKY/WX    TMP DP  RH WIND       PRES   REMARKS
THOMASVILLE    FAIR      48  30  49 E8        30.40F WCI  45
BAINBRIDGE     SUNNY     52  32  46 NE7       30.41F
MOODY AFB      SUNNY     48  28  47 VRB6      30.37F WCI  45
VALDOSTA       SUNNY     49  28  44 NE9       30.38F WCI  45
MOULTRIE       SUNNY     46  32  57 E5        30.39F WCI  44
BLAKELY        SUNNY     50  30  46 NW6       30.40F
ALBANY         SUNNY     48  25  40 N5        30.42F
TIFTON         FAIR      44  27  49 NE5       30.39F WCI  42
FITZGERALD     FAIR      48  25  40 NE3       30.41F
CORDELE        FAIR      47  26  44 NW3       30.41F
AMERICUS       FAIR      43  25  49 E3        30.41F
HOMERVILLE     FAIR      50  32  50 E7        30.38F
$$

!GMZ750-755-770-775-281800
...Coastal and Buoy Obs...

STATION/POSITION TIME  TEMP    WIND        PRES    VSBY  WAVE
                       AIR SEA DIR/SP/G                  HT/PER
                 (UTC) (F)     (DEG/KT/KT) (MB)    (MI)  (FT/S)
KEATON BEACH     1700   49      20/  5/  8 1028.3F
CEDAR KEY        1659   50      40/  7/ 10 1028.0F
C TOWER          1700   47      40/ 13/ 15 1028.8F
APALACHICOLA BUO 1700   52 69   40/ 14/ 17 1027.9F         5/ 7
PANAMA CITY BUOY 1642   54 75   60/ 14/ 19 1028.8F         5/ 5
MOBILE BUOY      1605   56 71   70/ 12/ 16 1030.1F         3/ 6
ORANGE BCH AL BU 1700   48 64   50/ 10/ 14 1029.8F         2/ 5
$$



USA.gov is the U.S. government's official web portal to all federal, state and local government web resources and services.